Weather History for St. Thomas, VI

Change the Weather History Date:

Tuesday, November 5, 2013

  Actual Average Record
Temperature  
Mean Temperature 81 °F 82 °F  
Max Temperature 86 °F 88 °F 91 °F (1989)
Min Temperature 76 °F 76 °F 69 °F (2014)
Degree Days  
Heating Degree Days 0 0  
Month to date heating degree days 0 0  
Since 1 July heating degree days 0 0  
Cooling Degree Days 16 17  
Month to date cooling degree days 80 85  
Year to date cooling degree days 5139 5196  
Growing Degree Days 30 (Base 50)    
Moisture  
Dew Point 75 °F    
Average Humidity 87    
Maximum Humidity 100    
Minimum Humidity 74    
Precipitation  
Precipitation 0.00 in 0.20 in 5.74 in (1984)
Month to date precipitation 4.29 1.01  
Year to date precipitation 41.00 32.16  
Sea Level Pressure  
Sea Level Pressure 29.88 in    
Wind  
Wind Speed 5 mph (ESE)    
Max Wind Speed 10 mph    
Max Gust Speed 14 mph    
Visibility 10 miles    
Events      
T = Trace of Precipitation, MM = Missing Value Source: NWS Daily Summary

Daily Weather History Graph

Daily Weather History Graph

Search for Another Location

Airport:

Trip Planner

Search our weather history database for the weather conditions in past years. The results will help you decide how hot, cold, wet, or windy it might be!

Date:

Astronomy

Nov. 05, 2013 Rise Set
Actual Time 6:21 AM AST 5:45 PM AST
Civil Twilight 5:58 AM AST 6:08 PM AST
Nautical Twilight 5:32 AM AST 6:34 PM AST
Astronomical Twilight 5:06 AM AST 6:59 PM AST
Moon 8:21 AM AST (11/5) 7:54 PM AST (11/5)
Length of Visible Light 12h 09m
Length of Day
11h 24m
Waxing Crescent, 6% of the Moon is Illuminated
Nov 5
Waxing Crescent
Nov 10
First Quarter
Nov 17
Full
Nov 25
Last Quarter
Dec 2
New

Hourly Weather History & Observations

Time (AST) Temp. Heat Index Dew Point Humidity Pressure Visibility Wind Dir Wind Speed Gust Speed Precip Events Conditions
12:53 AM 78.1 °F - 75.9 °F 93% 29.89 in 10.0 mi Calm Calm - N/A   Clear
1:53 AM 77.0 °F - 75.9 °F 96% 29.87 in 10.0 mi East 3.5 mph - N/A   Clear
2:53 AM 75.9 °F - 75.9 °F 100% 29.86 in 10.0 mi ENE 3.5 mph - N/A   Clear
3:53 AM 77.0 °F - 73.9 °F 90% 29.85 in 10.0 mi East 5.8 mph - N/A   Clear
4:53 AM 77.0 °F - 73.9 °F 90% 29.85 in 10.0 mi Calm Calm - N/A   Clear
5:53 AM 77.0 °F - 73.9 °F 90% 29.86 in 10.0 mi Calm Calm - N/A   Clear
6:53 AM 79.0 °F - 75.0 °F 88% 29.88 in 10.0 mi East 3.5 mph - N/A   Clear
7:53 AM 81.0 °F 87.9 °F 77.0 °F 88% 29.90 in 10.0 mi East 6.9 mph - N/A   Clear
8:53 AM 82.9 °F 90.8 °F 75.9 °F 79% 29.91 in 10.0 mi ESE 8.1 mph - N/A   Clear
9:53 AM 84.0 °F 92.6 °F 75.9 °F 76% 29.92 in 10.0 mi SSE 8.1 mph - N/A   Scattered Clouds
10:53 AM 84.9 °F 94.1 °F 75.9 °F 74% 29.92 in 10.0 mi SSE 8.1 mph - N/A   Partly Cloudy
11:53 AM 84.9 °F 94.1 °F 75.9 °F 74% 29.90 in 10.0 mi SSE 10.4 mph - N/A   Clear
12:53 PM 84.9 °F 94.1 °F 75.9 °F 74% 29.87 in 10.0 mi SE 8.1 mph - N/A   Partly Cloudy
1:53 PM 84.0 °F 92.6 °F 75.9 °F 76% 29.86 in 10.0 mi SSE 8.1 mph - N/A   Clear
2:53 PM 84.9 °F 94.1 °F 75.9 °F 74% 29.84 in 10.0 mi SSE 8.1 mph - N/A   Clear
3:53 PM 84.0 °F 91.9 °F 75.0 °F 74% 29.84 in 10.0 mi SSE 6.9 mph - N/A   Clear
4:53 PM 84.0 °F 91.9 °F 75.0 °F 74% 29.84 in 10.0 mi SE 6.9 mph - N/A   Clear
5:53 PM 82.9 °F 90.8 °F 75.9 °F 79% 29.86 in 10.0 mi SE 5.8 mph - N/A   Partly Cloudy
6:53 PM 81.0 °F 87.3 °F 75.9 °F 85% 29.87 in 10.0 mi East 3.5 mph - N/A   Partly Cloudy
7:53 PM 80.1 °F 85.1 °F 75.0 °F 85% 29.88 in 10.0 mi East 3.5 mph - N/A   Clear
8:53 PM 79.0 °F - 73.9 °F 84% 29.89 in 10.0 mi East 4.6 mph - N/A   Clear
9:53 PM 80.1 °F 84.5 °F 73.9 °F 81% 29.90 in 10.0 mi East 3.5 mph - N/A   Clear
10:53 PM 79.0 °F - 75.9 °F 90% 29.90 in 10.0 mi East 3.5 mph - N/A   Clear
11:53 PM 80.1 °F 85.4 °F 75.9 °F 87% 29.90 in 10.0 mi East 3.5 mph - N/A   Partly Cloudy